Regional Weather Roundup
Issued by NWS Cleveland, OH

Home | Current Version | Previous Version | Text Only | Print | Product List | Glossary Off
Versions: 1 2 3 4 5 6 7 8 9 10 11 12 13 14 15 16 17 18 19 20 21 22 23 24 25 26 27 28 29 30 31 32 33 34 35 36 37 38 39 40 41 42 43 44 45 46 47 48 49 50

000
ASUS41 KCLE 200610
RWRCLE
OHIO REGIONAL WEATHER ROUNDUP
NATIONAL WEATHER SERVICE CLEVELAND, OH
200 AM EDT MON OCT 20 2014

NOTE: "FAIR" INDICATES FEW OR NO CLOUDS BELOW 12,000 FEET WITH NO
SIGNIFICANT WEATHER AND/OR OBSTRUCTIONS TO VISIBILITY.

OHZ001>008-015>018-024>027-034-035-043-044-200700-
   NORTHWEST OHIO

CITY           SKY/WX    TMP DP  RH WIND       PRES   REMARKS
DEFIANCE       CLOUDY    50  40  68 SW7       29.99S
FINDLAY        CLOUDY    49  38  65 S9        29.99F
TOLEDO EXPRESS CLOUDY    49  37  63 SW9       29.98S
TOLEDO EXEC    CLOUDY    49  36  61 SW10      30.00R
LIMA           CLOUDY    49  39  68 SW8       30.01R
$$

OHZ009>014-019>023-028>033-038-089-200700-
   NORTHEAST OHIO

CITY           SKY/WX    TMP DP  RH WIND       PRES   REMARKS
CLE-HOPKINS    CLOUDY    48  35  60 S8        30.03S
CLE-LAKEFRONT  MOCLDY    48  36  63 S7        30.01R
CUY CO. ARPT   NOT AVBL
LORAIN-ELYRIA  CLOUDY    46  37  71 SW5       30.01S
ASHTABULA      MOCLDY    42  36  79 S5        30.03R
AKRON-CANTON   CLOUDY    46  35  65 SW9       30.02F
WOOSTER        CLOUDY    46  36  68 S7        30.02F
MANSFIELD      CLOUDY    46  36  68 S12       30.01F
YOUNGSTOWN     CLOUDY    44  35  70 S6        30.02F
$$

OHZ042-051>053-060>062-070>072-077>081-200700-
  SOUTHWEST OHIO

CITY           SKY/WX    TMP DP  RH WIND       PRES   REMARKS
CINC-COVINGTON CLOUDY    45  40  82 SW3       30.05S
CINC-LUNKEN    PTCLDY    43  42  97 CALM      30.07S
HAMILTON       PTCLDY    42  41  96 CALM      30.06F
DAYTON         CLOUDY    47  39  74 S6        30.04S
WRIGHT-PAT AFB MOCLDY    46  40  79 SW2       30.04S
DAYTON GENERAL MOCLDY    45  40  82 S3        30.03F
WILMINGTON     MOCLDY    44  39  82 SW5       30.04S
$$

OHZ036-037-039>041-045>050-054>059-063>069-073>076-082>088-200700-
  CENTRAL AND SOUTHEAST OHIO

CITY           SKY/WX    TMP DP  RH WIND       PRES   REMARKS
COLUMBUS       PTCLDY    44  36  73 CALM      30.04F
OSU AIRPORT    PTCLDY    45  37  73 S5        30.03F
BOLTON FIELD   CLEAR     42  38  86 S3        30.04F
RICKENBACK AFB CLEAR     41  38  86 S3        30.04F
NEWARK         CLEAR     38  35  89 CALM      30.04F
MARION         MOCLDY    47  36  65 SW7       30.02S
LANCASTER      CLEAR     39  37  92 CALM      30.05S
ZANESVILLE     CLEAR     38  34  85 CALM      30.05F
NEW PHILLY     MOCLDY    42  38  85 SE5       30.06S
$$


USA.gov is the U.S. government's official web portal to all federal, state and local government web resources and services.